Year,Month,Day,Hour,Minute,Value (Times are PST for temperature in C)
2011,08,16,00,00,10.40
2011,08,16,00,01,10.40
2011,08,16,00,02,10.30
2011,08,16,00,03,10.30
2011,08,16,00,04,10.40
2011,08,16,00,05,10.40
2011,08,16,00,06,10.40
2011,08,16,00,07,10.40
2011,08,16,00,08,10.40
2011,08,16,00,09,10.40
2011,08,16,00,10,10.40
2011,08,16,00,11,10.40
2011,08,16,00,12,10.40
2011,08,16,00,13,10.40
2011,08,16,00,14,10.40
2011,08,16,00,15,10.30
2011,08,16,00,16,10.30
2011,08,16,00,17,10.30
2011,08,16,00,18,10.30
2011,08,16,00,19,10.20
2011,08,16,00,20,10.20
2011,08,16,00,21,10.20
2011,08,16,00,22,10.20
2011,08,16,00,23,10.20
2011,08,16,00,24,10.20
2011,08,16,00,25,10.20
2011,08,16,00,26,10.20
2011,08,16,00,27,10.20
2011,08,16,00,28,10.20
2011,08,16,00,29,10.10
2011,08,16,00,30,10.10
2011,08,16,00,31,10.10
2011,08,16,00,32,10.10
2011,08,16,00,33,10.10
2011,08,16,00,34,10.10
2011,08,16,00,35,10.10
2011,08,16,00,36,10.10
2011,08,16,00,37,10.10
2011,08,16,00,38,10.10
2011,08,16,00,39,10.00
2011,08,16,00,40,10.10
2011,08,16,00,41,10.00
2011,08,16,00,42,10.00
2011,08,16,00,43,10.00
2011,08,16,00,44,10.00
2011,08,16,00,45,10.00
2011,08,16,00,46,10.00
2011,08,16,00,47,10.00
2011,08,16,00,48,10.00
2011,08,16,00,49,10.00
2011,08,16,00,50,10.00
2011,08,16,00,51,10.10
2011,08,16,00,52,10.10
2011,08,16,00,53,10.00
2011,08,16,00,54,10.00
2011,08,16,00,55,10.00
2011,08,16,00,56,10.00
2011,08,16,00,57,10.00
2011,08,16,00,58,10.00
2011,08,16,00,59,10.00
2011,08,16,01,00,10.00
2011,08,16,01,01,10.00
2011,08,16,01,02,9.90
2011,08,16,01,03,9.90
2011,08,16,01,04,9.90
2011,08,16,01,05,9.90
2011,08,16,01,06,9.90
2011,08,16,01,07,9.80
2011,08,16,01,08,9.80
2011,08,16,01,09,9.80
2011,08,16,01,10,9.80
2011,08,16,01,11,9.80
2011,08,16,01,12,9.80
2011,08,16,01,13,9.80
2011,08,16,01,14,9.80
2011,08,16,01,15,9.80
2011,08,16,01,16,9.80
2011,08,16,01,17,9.80
2011,08,16,01,18,9.80
2011,08,16,01,19,9.80
2011,08,16,01,20,9.80
2011,08,16,01,21,9.80
2011,08,16,01,22,9.80
2011,08,16,01,23,9.80
2011,08,16,01,24,9.80
2011,08,16,01,25,9.70
2011,08,16,01,26,9.70
2011,08,16,01,27,9.70
2011,08,16,01,28,9.70
2011,08,16,01,29,9.70
2011,08,16,01,30,9.70
2011,08,16,01,31,9.70
2011,08,16,01,32,9.70
2011,08,16,01,33,9.80
2011,08,16,01,34,9.80
2011,08,16,01,35,9.80
2011,08,16,01,36,9.80
2011,08,16,01,37,9.70
2011,08,16,01,38,9.70
2011,08,16,01,39,9.70
2011,08,16,01,40,9.70
2011,08,16,01,41,9.70
2011,08,16,01,42,9.70
2011,08,16,01,43,9.60
2011,08,16,01,44,9.70
2011,08,16,01,45,9.70
2011,08,16,01,46,9.70
2011,08,16,01,47,9.70
2011,08,16,01,48,9.70
2011,08,16,01,49,9.70
2011,08,16,01,50,9.70
2011,08,16,01,51,9.70
2011,08,16,01,52,9.70
2011,08,16,01,53,9.70
2011,08,16,01,54,9.70
2011,08,16,01,55,9.70
2011,08,16,01,56,9.70
2011,08,16,01,57,9.70
2011,08,16,01,58,9.70
2011,08,16,01,59,9.70
2011,08,16,02,00,9.70
2011,08,16,02,01,9.70
2011,08,16,02,02,9.70
2011,08,16,02,03,9.70
2011,08,16,02,04,9.70
2011,08,16,02,05,9.70
2011,08,16,02,06,9.70
2011,08,16,02,07,9.60
2011,08,16,02,08,9.60
2011,08,16,02,09,9.60
2011,08,16,02,10,9.60
2011,08,16,02,11,9.70
2011,08,16,02,12,9.70
2011,08,16,02,13,9.70
2011,08,16,02,14,9.70
2011,08,16,02,15,9.70
2011,08,16,02,16,9.70
2011,08,16,02,17,9.70
2011,08,16,02,18,9.70
2011,08,16,02,19,9.70
2011,08,16,02,20,9.70
2011,08,16,02,21,9.70
2011,08,16,02,22,9.70
2011,08,16,02,23,9.70
2011,08,16,02,24,9.60
2011,08,16,02,25,9.60
2011,08,16,02,26,9.60
2011,08,16,02,27,9.60
2011,08,16,02,28,9.60
2011,08,16,02,29,9.60
2011,08,16,02,30,9.60
2011,08,16,02,31,9.50
2011,08,16,02,32,9.50
2011,08,16,02,33,9.50
2011,08,16,02,34,9.50
2011,08,16,02,35,9.40
2011,08,16,02,36,9.40
2011,08,16,02,37,9.40
2011,08,16,02,38,9.40
2011,08,16,02,39,9.40
2011,08,16,02,40,9.40
2011,08,16,02,41,9.40
2011,08,16,02,42,9.40
2011,08,16,02,43,9.30
2011,08,16,02,44,9.30
2011,08,16,02,45,9.30
2011,08,16,02,46,9.30
2011,08,16,02,47,9.30
2011,08,16,02,48,9.30
2011,08,16,02,49,9.30
2011,08,16,02,50,9.30
2011,08,16,02,51,9.30
2011,08,16,02,52,9.30
2011,08,16,02,53,9.40
2011,08,16,02,54,9.50
2011,08,16,02,55,9.50
2011,08,16,02,56,9.60
2011,08,16,02,57,9.60
2011,08,16,02,58,9.60
2011,08,16,02,59,9.60
2011,08,16,03,00,9.50
2011,08,16,03,01,9.50
2011,08,16,03,02,9.50
2011,08,16,03,03,9.50
2011,08,16,03,04,9.50
2011,08,16,03,05,9.40
2011,08,16,03,06,9.40
2011,08,16,03,07,9.40
2011,08,16,03,08,9.40
2011,08,16,03,09,9.40
2011,08,16,03,10,9.40
2011,08,16,03,11,9.40
2011,08,16,03,12,9.40
2011,08,16,03,13,9.40
2011,08,16,03,14,9.30
2011,08,16,03,15,9.30
2011,08,16,03,16,9.30
2011,08,16,03,17,9.30
2011,08,16,03,18,9.30
2011,08,16,03,19,9.30
2011,08,16,03,20,9.30
2011,08,16,03,21,9.30
2011,08,16,03,22,9.30
2011,08,16,03,23,9.30
2011,08,16,03,24,9.30
2011,08,16,03,25,9.30
2011,08,16,03,26,9.30
2011,08,16,03,27,9.30
2011,08,16,03,28,9.30
2011,08,16,03,29,9.30
2011,08,16,03,30,9.30
2011,08,16,03,31,9.30
2011,08,16,03,32,9.30
2011,08,16,03,33,9.30
2011,08,16,03,34,9.30
2011,08,16,03,35,9.30
2011,08,16,03,36,9.30
2011,08,16,03,37,9.40
2011,08,16,03,38,9.40
2011,08,16,03,39,9.50
2011,08,16,03,40,9.60
2011,08,16,03,41,9.60
2011,08,16,03,42,9.60
2011,08,16,03,43,9.60
2011,08,16,03,44,9.60
2011,08,16,03,45,9.60
2011,08,16,03,46,9.60
2011,08,16,03,47,9.60
2011,08,16,03,48,9.60
2011,08,16,03,49,9.60
2011,08,16,03,50,9.50
2011,08,16,03,51,9.50
2011,08,16,03,52,9.50
2011,08,16,03,53,9.40
2011,08,16,03,54,9.40
2011,08,16,03,55,9.40
2011,08,16,03,56,9.40
2011,08,16,03,57,9.40
2011,08,16,03,58,9.40
2011,08,16,03,59,9.40
2011,08,16,04,00,9.40
2011,08,16,04,01,9.40
2011,08,16,04,02,9.40
2011,08,16,04,03,9.40
2011,08,16,04,04,9.40
2011,08,16,04,05,9.40
2011,08,16,04,06,9.40
2011,08,16,04,07,9.40
2011,08,16,04,08,9.40
2011,08,16,04,09,9.40
2011,08,16,04,10,9.40
2011,08,16,04,11,9.40
2011,08,16,04,12,9.40
2011,08,16,04,13,9.40
2011,08,16,04,14,9.40
2011,08,16,04,15,9.40
2011,08,16,04,16,9.40
2011,08,16,04,17,9.30
2011,08,16,04,18,9.30
2011,08,16,04,19,9.30
2011,08,16,04,20,9.30
2011,08,16,04,21,9.30
2011,08,16,04,22,9.30
2011,08,16,04,23,9.30
2011,08,16,04,24,9.30
2011,08,16,04,25,9.30
2011,08,16,04,26,9.30
2011,08,16,04,27,9.30
2011,08,16,04,28,9.30
2011,08,16,04,29,9.30
2011,08,16,04,30,9.30
2011,08,16,04,31,9.30
2011,08,16,04,32,9.30
2011,08,16,04,33,9.30
2011,08,16,04,34,9.30
2011,08,16,04,35,9.30
2011,08,16,04,36,9.30
2011,08,16,04,37,9.30
2011,08,16,04,38,9.30
2011,08,16,04,39,9.30
2011,08,16,04,40,9.30
2011,08,16,04,41,9.30
2011,08,16,04,42,9.30
2011,08,16,04,43,9.30
2011,08,16,04,44,9.30
2011,08,16,04,45,9.30
2011,08,16,04,46,9.30
2011,08,16,04,47,9.30
2011,08,16,04,48,9.30
2011,08,16,04,49,9.30
2011,08,16,04,50,9.30
2011,08,16,04,51,9.20
2011,08,16,04,52,9.20
2011,08,16,04,53,9.20
2011,08,16,04,54,9.20
2011,08,16,04,55,9.20
2011,08,16,04,56,9.20
2011,08,16,04,57,9.20
2011,08,16,04,58,9.20
2011,08,16,04,59,9.20
2011,08,16,05,00,9.20
2011,08,16,05,01,9.20
2011,08,16,05,02,9.20
2011,08,16,05,03,9.20
2011,08,16,05,04,9.20
2011,08,16,05,05,9.20
2011,08,16,05,06,9.20
2011,08,16,05,07,9.20
2011,08,16,05,08,9.20
2011,08,16,05,09,9.20
2011,08,16,05,10,9.20
2011,08,16,05,11,9.30
2011,08,16,05,12,9.30
2011,08,16,05,13,9.30
2011,08,16,05,14,9.30
2011,08,16,05,15,9.30
2011,08,16,05,16,9.30
2011,08,16,05,17,9.30
2011,08,16,05,18,9.30
2011,08,16,05,19,9.30
2011,08,16,05,20,9.30
2011,08,16,05,21,9.30
2011,08,16,05,22,9.30
2011,08,16,05,23,9.30
2011,08,16,05,24,9.30
2011,08,16,05,25,9.30
2011,08,16,05,26,9.30
2011,08,16,05,27,9.30
2011,08,16,05,28,9.30
2011,08,16,05,29,9.30
2011,08,16,05,30,9.30
2011,08,16,05,31,9.30
2011,08,16,05,32,9.30
2011,08,16,05,33,9.30
2011,08,16,05,34,9.30
2011,08,16,05,35,9.30
2011,08,16,05,36,9.30
2011,08,16,05,37,9.30
2011,08,16,05,38,9.30
2011,08,16,05,39,9.30
2011,08,16,05,40,9.30
2011,08,16,05,41,9.30
2011,08,16,05,42,9.30
2011,08,16,05,43,9.30
2011,08,16,05,44,9.30
2011,08,16,05,45,9.30
2011,08,16,05,46,9.30
2011,08,16,05,47,9.30
2011,08,16,05,48,9.30
2011,08,16,05,49,9.30
2011,08,16,05,50,9.30
2011,08,16,05,51,9.30
2011,08,16,05,52,9.30
2011,08,16,05,53,9.30
2011,08,16,05,54,9.30
2011,08,16,05,55,9.30
2011,08,16,05,56,9.30
2011,08,16,05,57,9.30
2011,08,16,05,58,9.30
2011,08,16,05,59,9.30
2011,08,16,06,00,9.30
2011,08,16,06,01,9.30
2011,08,16,06,02,9.30
2011,08,16,06,03,9.30
2011,08,16,06,04,9.30
2011,08,16,06,05,9.30
2011,08,16,06,06,9.30
2011,08,16,06,07,9.30
2011,08,16,06,08,9.30
2011,08,16,06,09,9.30
2011,08,16,06,10,9.30
2011,08,16,06,11,9.30
2011,08,16,06,12,9.30
2011,08,16,06,13,9.30
2011,08,16,06,14,9.30
2011,08,16,06,15,9.30
2011,08,16,06,16,9.30
2011,08,16,06,17,9.40
2011,08,16,06,18,9.40
2011,08,16,06,19,9.40
2011,08,16,06,20,9.40
2011,08,16,06,21,9.40
2011,08,16,06,22,9.40
2011,08,16,06,23,9.30
2011,08,16,06,24,9.30
2011,08,16,06,25,9.30
2011,08,16,06,26,9.40
2011,08,16,06,27,9.40
2011,08,16,06,28,9.40
2011,08,16,06,29,9.40
2011,08,16,06,30,9.40
2011,08,16,06,31,9.40
2011,08,16,06,32,9.50
2011,08,16,06,33,9.50
2011,08,16,06,34,9.50
2011,08,16,06,35,9.50
2011,08,16,06,36,9.50
2011,08,16,06,37,9.60
2011,08,16,06,38,9.60
2011,08,16,06,39,9.60
2011,08,16,06,40,9.50
2011,08,16,06,41,9.60
2011,08,16,06,42,9.60
2011,08,16,06,43,9.60
2011,08,16,06,44,9.60
2011,08,16,06,45,9.60
2011,08,16,06,46,9.60
2011,08,16,06,47,9.60
2011,08,16,06,48,9.60
2011,08,16,06,49,9.60
2011,08,16,06,50,9.70
2011,08,16,06,51,9.70
2011,08,16,06,52,9.80
2011,08,16,06,53,9.80
2011,08,16,06,54,9.80
2011,08,16,06,55,9.80
2011,08,16,06,56,9.90
2011,08,16,06,57,9.90
2011,08,16,06,58,9.90
2011,08,16,06,59,9.90
2011,08,16,07,00,10.00
2011,08,16,07,01,10.00
2011,08,16,07,02,10.10
2011,08,16,07,03,10.10
2011,08,16,07,04,10.10
2011,08,16,07,05,10.10
2011,08,16,07,06,10.10
2011,08,16,07,07,10.10
2011,08,16,07,08,10.10
2011,08,16,07,09,10.10
2011,08,16,07,10,10.10
2011,08,16,07,11,10.10
2011,08,16,07,12,10.10
2011,08,16,07,13,10.10
2011,08,16,07,14,10.10
2011,08,16,07,15,10.20
2011,08,16,07,16,10.20
2011,08,16,07,17,10.30
2011,08,16,07,18,10.30
2011,08,16,07,19,10.40
2011,08,16,07,20,10.50
2011,08,16,07,21,10.60
2011,08,16,07,22,10.60
2011,08,16,07,23,10.70
2011,08,16,07,24,10.70
2011,08,16,07,25,10.80
2011,08,16,07,26,10.80
2011,08,16,07,27,10.90
2011,08,16,07,28,10.90
2011,08,16,07,29,11.00
2011,08,16,07,30,11.10
2011,08,16,07,31,11.10
2011,08,16,07,32,11.10
2011,08,16,07,33,11.20
2011,08,16,07,34,11.20
2011,08,16,07,35,11.30
2011,08,16,07,36,11.30
2011,08,16,07,37,11.40
2011,08,16,07,38,11.40
2011,08,16,07,39,11.50
2011,08,16,07,40,11.60
2011,08,16,07,41,11.60
2011,08,16,07,42,11.70
2011,08,16,07,43,11.70
2011,08,16,07,44,11.80
2011,08,16,07,45,11.90
2011,08,16,07,46,11.90
2011,08,16,07,47,12.00
2011,08,16,07,48,12.10
2011,08,16,07,49,12.20
2011,08,16,07,50,12.30
2011,08,16,07,51,12.40
2011,08,16,07,52,12.50
2011,08,16,07,53,12.60
2011,08,16,07,54,12.60
2011,08,16,07,55,12.70
2011,08,16,07,56,12.80
2011,08,16,07,57,12.90
2011,08,16,07,58,12.90
2011,08,16,07,59,13.00
2011,08,16,08,00,13.10
2011,08,16,08,01,13.20
2011,08,16,08,02,13.30
2011,08,16,08,03,13.40
2011,08,16,08,04,13.50
2011,08,16,08,05,13.60
2011,08,16,08,06,13.70
2011,08,16,08,07,13.80
2011,08,16,08,08,13.90
2011,08,16,08,09,14.00
2011,08,16,08,10,14.20
2011,08,16,08,11,14.30
2011,08,16,08,12,14.40
2011,08,16,08,13,14.60
2011,08,16,08,14,14.90
2011,08,16,08,15,15.00
2011,08,16,08,16,15.10
2011,08,16,08,17,15.30
2011,08,16,08,18,15.40
2011,08,16,08,19,15.50
2011,08,16,08,20,15.70
2011,08,16,08,21,15.80
2011,08,16,08,22,15.90
2011,08,16,08,23,16.10
2011,08,16,08,24,16.20
2011,08,16,08,25,16.30
2011,08,16,08,26,16.40
2011,08,16,08,27,16.50
2011,08,16,08,28,16.70
2011,08,16,08,29,16.80
2011,08,16,08,30,16.90
2011,08,16,08,31,17.00
2011,08,16,08,32,17.10
2011,08,16,08,33,17.20
2011,08,16,08,34,17.30
2011,08,16,08,35,17.40
2011,08,16,08,36,17.60
2011,08,16,08,37,17.70
2011,08,16,08,38,17.70
2011,08,16,08,39,17.80
2011,08,16,08,40,17.80
2011,08,16,08,41,17.80
2011,08,16,08,42,17.80
2011,08,16,08,43,17.80
2011,08,16,08,44,17.80
2011,08,16,08,45,17.80
2011,08,16,08,46,17.70
2011,08,16,08,47,17.60
2011,08,16,08,48,17.50
2011,08,16,08,49,17.40
2011,08,16,08,50,17.40
2011,08,16,08,51,17.50
2011,08,16,08,52,17.50
2011,08,16,08,53,17.50
2011,08,16,08,54,17.60
2011,08,16,08,55,17.60
2011,08,16,08,56,17.70
2011,08,16,08,57,17.70
2011,08,16,08,58,17.80
2011,08,16,08,59,17.80
2011,08,16,09,00,17.90
2011,08,16,09,01,18.00
2011,08,16,09,02,18.10
2011,08,16,09,03,18.00
2011,08,16,09,04,18.00
2011,08,16,09,05,18.10
2011,08,16,09,06,18.20
2011,08,16,09,07,18.20
2011,08,16,09,08,18.20
2011,08,16,09,09,18.20
2011,08,16,09,10,18.20
2011,08,16,09,11,18.20
2011,08,16,09,12,18.20
2011,08,16,09,13,18.20
2011,08,16,09,14,18.30
2011,08,16,09,15,18.40
2011,08,16,09,16,18.40
2011,08,16,09,17,18.50
2011,08,16,09,18,18.50
2011,08,16,09,19,18.60
2011,08,16,09,20,18.50
2011,08,16,09,21,18.40
2011,08,16,09,22,18.30
2011,08,16,09,23,18.10
2011,08,16,09,24,18.00
2011,08,16,09,25,17.80
2011,08,16,09,26,17.70
2011,08,16,09,27,17.70
2011,08,16,09,28,17.70
2011,08,16,09,29,17.60
2011,08,16,09,30,17.60
2011,08,16,09,31,17.60
2011,08,16,09,32,17.60
2011,08,16,09,33,17.60
2011,08,16,09,34,17.60
2011,08,16,09,35,17.70
2011,08,16,09,36,17.70
2011,08,16,09,37,17.70
2011,08,16,09,38,17.80
2011,08,16,09,39,17.80
2011,08,16,09,40,17.70
2011,08,16,09,41,17.70
2011,08,16,09,42,17.80
2011,08,16,09,43,17.90
2011,08,16,09,44,18.00
2011,08,16,09,45,18.10
2011,08,16,09,46,18.10
2011,08,16,09,47,18.10
2011,08,16,09,48,18.20
2011,08,16,09,49,18.30
2011,08,16,09,50,18.20
2011,08,16,09,51,18.20
2011,08,16,09,52,18.10
2011,08,16,09,53,18.20
2011,08,16,09,54,18.10
2011,08,16,09,55,18.20
2011,08,16,09,56,18.30
2011,08,16,09,57,18.40
2011,08,16,09,58,18.40
2011,08,16,09,59,18.40
2011,08,16,10,00,18.40
2011,08,16,10,01,18.30
2011,08,16,10,02,18.20
2011,08,16,10,03,18.00
2011,08,16,10,04,18.00
2011,08,16,10,05,18.10
2011,08,16,10,06,18.10
2011,08,16,10,07,18.10
2011,08,16,10,08,18.20
2011,08,16,10,09,18.30
2011,08,16,10,10,18.20
2011,08,16,10,11,18.20
2011,08,16,10,12,18.10
2011,08,16,10,13,17.90
2011,08,16,10,14,17.80
2011,08,16,10,15,17.90
2011,08,16,10,16,18.00
2011,08,16,10,17,18.10
2011,08,16,10,18,18.20
2011,08,16,10,19,18.30
2011,08,16,10,20,18.30
2011,08,16,10,21,18.30
2011,08,16,10,22,18.20
2011,08,16,10,23,18.20
2011,08,16,10,24,18.20
2011,08,16,10,25,18.20
2011,08,16,10,26,18.20
2011,08,16,10,27,18.40
2011,08,16,10,28,18.60
2011,08,16,10,29,18.70
2011,08,16,10,30,18.70
2011,08,16,10,31,18.70
2011,08,16,10,32,18.70
2011,08,16,10,33,18.60
2011,08,16,10,34,18.60
2011,08,16,10,35,18.60
2011,08,16,10,36,18.60
2011,08,16,10,37,18.70
2011,08,16,10,38,18.80
2011,08,16,10,39,18.80
2011,08,16,10,40,18.80
2011,08,16,10,41,18.80
2011,08,16,10,42,18.90
2011,08,16,10,43,19.00
2011,08,16,10,44,19.10
2011,08,16,10,45,19.10
2011,08,16,10,46,19.30
2011,08,16,10,47,19.30
2011,08,16,10,48,19.40
2011,08,16,10,49,19.40
2011,08,16,10,50,19.40
2011,08,16,10,51,19.40
2011,08,16,10,52,19.50
2011,08,16,10,53,19.50
2011,08,16,10,54,19.60
2011,08,16,10,55,19.50
2011,08,16,10,56,19.40
2011,08,16,10,57,19.30
2011,08,16,10,58,19.30
2011,08,16,10,59,19.40
2011,08,16,11,00,19.40
2011,08,16,11,01,19.40
2011,08,16,11,02,19.40
2011,08,16,11,03,19.50
2011,08,16,11,04,19.40
2011,08,16,11,05,19.40
2011,08,16,11,06,19.50
2011,08,16,11,07,19.50
2011,08,16,11,08,19.40
2011,08,16,11,09,19.50
2011,08,16,11,10,19.40
2011,08,16,11,11,19.40
2011,08,16,11,12,19.20
2011,08,16,11,13,19.20
2011,08,16,11,14,19.20
2011,08,16,11,15,19.20
2011,08,16,11,16,19.20
2011,08,16,11,17,19.30
2011,08,16,11,18,19.30
2011,08,16,11,19,19.40
2011,08,16,11,20,19.50
2011,08,16,11,21,19.50
2011,08,16,11,22,19.50
2011,08,16,11,23,19.50
2011,08,16,11,24,19.50
2011,08,16,11,25,19.60
2011,08,16,11,26,19.60
2011,08,16,11,27,19.60
2011,08,16,11,28,19.60
2011,08,16,11,29,19.60
2011,08,16,11,30,19.60
2011,08,16,11,31,19.50
2011,08,16,11,32,19.40
2011,08,16,11,33,19.40
2011,08,16,11,34,19.40
2011,08,16,11,35,19.40
2011,08,16,11,36,19.50
2011,08,16,11,37,19.40
2011,08,16,11,38,19.50
2011,08,16,11,39,19.50
2011,08,16,11,40,19.60
2011,08,16,11,41,19.60
2011,08,16,11,42,19.60
2011,08,16,11,43,19.60
2011,08,16,11,44,19.60
2011,08,16,11,45,19.50
2011,08,16,11,46,19.50
2011,08,16,11,47,19.60
2011,08,16,11,48,19.50
2011,08,16,11,49,19.50
2011,08,16,11,50,19.40
2011,08,16,11,51,19.50
2011,08,16,11,52,19.60
2011,08,16,11,53,19.60
2011,08,16,11,54,19.80
2011,08,16,11,55,19.90
2011,08,16,11,56,20.00
2011,08,16,11,57,20.00
2011,08,16,11,58,20.00
2011,08,16,11,59,19.90
2011,08,16,12,00,20.00
2011,08,16,12,01,19.90
2011,08,16,12,02,20.00
2011,08,16,12,03,20.00
2011,08,16,12,04,19.90
2011,08,16,12,05,19.70
2011,08,16,12,06,19.60
2011,08,16,12,07,19.60
2011,08,16,12,08,19.60
2011,08,16,12,09,19.50
2011,08,16,12,10,19.40
2011,08,16,12,11,19.30
2011,08,16,12,12,19.20
2011,08,16,12,13,19.10
2011,08,16,12,14,19.20
2011,08,16,12,15,19.20
2011,08,16,12,16,19.20
2011,08,16,12,17,19.30
2011,08,16,12,18,19.30
2011,08,16,12,19,19.40
2011,08,16,12,20,19.60
2011,08,16,12,21,19.70
2011,08,16,12,22,19.70
2011,08,16,12,23,19.70
2011,08,16,12,24,19.70
2011,08,16,12,25,19.70
2011,08,16,12,26,19.70
2011,08,16,12,27,19.70
2011,08,16,12,28,19.70
2011,08,16,12,29,19.80
2011,08,16,12,30,19.80
2011,08,16,12,31,19.90
2011,08,16,12,32,19.90
2011,08,16,12,33,19.90
2011,08,16,12,34,19.90
2011,08,16,12,35,19.90
2011,08,16,12,36,19.80
2011,08,16,12,37,19.80
2011,08,16,12,38,19.80
2011,08,16,12,39,19.80
2011,08,16,12,40,19.80
2011,08,16,12,41,19.80
2011,08,16,12,42,19.70
2011,08,16,12,43,19.60
2011,08,16,12,44,19.70
2011,08,16,12,45,19.70
2011,08,16,12,46,19.70
2011,08,16,12,47,19.80
2011,08,16,12,48,19.90
2011,08,16,12,49,20.00
2011,08,16,12,50,20.00
2011,08,16,12,51,20.10
2011,08,16,12,52,20.10
2011,08,16,12,53,20.20
2011,08,16,12,54,20.30
2011,08,16,12,55,20.40
2011,08,16,12,56,20.40
2011,08,16,12,57,20.50
2011,08,16,12,58,20.70
2011,08,16,12,59,20.80
2011,08,16,13,00,20.90
2011,08,16,13,01,21.00
2011,08,16,13,02,21.00
2011,08,16,13,03,21.10
2011,08,16,13,04,21.10
2011,08,16,13,05,21.10
2011,08,16,13,06,21.10
2011,08,16,13,07,21.00
2011,08,16,13,08,20.90
2011,08,16,13,09,20.80
2011,08,16,13,10,20.80
2011,08,16,13,11,20.80
2011,08,16,13,12,20.80
2011,08,16,13,13,20.70
2011,08,16,13,14,20.50
2011,08,16,13,15,20.40
2011,08,16,13,16,20.20
2011,08,16,13,17,20.00
2011,08,16,13,18,19.80
2011,08,16,13,19,19.80
2011,08,16,13,20,19.90
2011,08,16,13,21,20.00
2011,08,16,13,22,20.00
2011,08,16,13,23,20.10
2011,08,16,13,24,20.20
2011,08,16,13,25,20.30
2011,08,16,13,26,20.40
2011,08,16,13,27,20.50
2011,08,16,13,28,20.60
2011,08,16,13,29,20.60
2011,08,16,13,30,20.70
2011,08,16,13,31,20.70
2011,08,16,13,32,20.70
2011,08,16,13,33,20.80
2011,08,16,13,34,20.80
2011,08,16,13,35,20.80
2011,08,16,13,36,20.80
2011,08,16,13,37,20.80
2011,08,16,13,38,20.80
2011,08,16,13,39,20.80
2011,08,16,13,40,20.80
2011,08,16,13,41,20.80
2011,08,16,13,42,20.90
2011,08,16,13,43,21.00
2011,08,16,13,44,21.00
2011,08,16,13,45,21.10
2011,08,16,13,46,21.00
2011,08,16,13,47,20.90
2011,08,16,13,48,20.80
2011,08,16,13,49,20.70
2011,08,16,13,50,20.70
2011,08,16,13,51,20.60
2011,08,16,13,52,20.50
2011,08,16,13,53,20.50
2011,08,16,13,54,20.40
2011,08,16,13,55,20.50
2011,08,16,13,56,20.50
2011,08,16,13,57,20.50
2011,08,16,13,58,20.60
2011,08,16,13,59,20.70
2011,08,16,14,00,20.70
2011,08,16,14,01,20.70
2011,08,16,14,02,20.70
2011,08,16,14,03,20.70
2011,08,16,14,04,20.70
2011,08,16,14,05,20.80
2011,08,16,14,06,20.90
2011,08,16,14,07,20.90
2011,08,16,14,08,20.90
2011,08,16,14,09,21.00
2011,08,16,14,10,21.00
2011,08,16,14,11,21.10
2011,08,16,14,12,21.20
2011,08,16,14,13,21.30
2011,08,16,14,14,21.30
2011,08,16,14,15,21.40
2011,08,16,14,16,21.40
2011,08,16,14,17,21.40
2011,08,16,14,18,21.40
2011,08,16,14,19,21.40
2011,08,16,14,20,21.30
2011,08,16,14,21,21.30
2011,08,16,14,22,21.30
2011,08,16,14,23,21.20
2011,08,16,14,24,21.20
2011,08,16,14,25,21.00
2011,08,16,14,26,20.80
2011,08,16,14,27,20.70
2011,08,16,14,28,20.60
2011,08,16,14,29,20.70
2011,08,16,14,30,20.70
2011,08,16,14,31,20.80
2011,08,16,14,32,20.90
2011,08,16,14,33,21.00
2011,08,16,14,34,21.20
2011,08,16,14,35,21.30
2011,08,16,14,36,21.30
2011,08,16,14,37,21.30
2011,08,16,14,38,21.30
2011,08,16,14,39,21.30
2011,08,16,14,40,21.30
2011,08,16,14,41,21.30
2011,08,16,14,42,21.30
2011,08,16,14,43,21.30
2011,08,16,14,44,21.30
2011,08,16,14,45,21.30
2011,08,16,14,46,21.30
2011,08,16,14,47,21.30
2011,08,16,14,48,21.30
2011,08,16,14,49,21.00
2011,08,16,14,50,20.90
2011,08,16,14,51,20.90
2011,08,16,14,52,20.80
2011,08,16,14,53,20.80
2011,08,16,14,54,20.80
2011,08,16,14,55,20.80
2011,08,16,14,56,20.80
2011,08,16,14,57,20.80
2011,08,16,14,58,20.90
2011,08,16,14,59,20.90
2011,08,16,15,00,21.00
2011,08,16,15,01,21.10
2011,08,16,15,02,21.10
2011,08,16,15,03,21.20
2011,08,16,15,04,21.20
2011,08,16,15,05,21.20
2011,08,16,15,06,21.20
2011,08,16,15,07,21.10
2011,08,16,15,08,21.10
2011,08,16,15,09,21.00
2011,08,16,15,10,20.90
2011,08,16,15,11,20.90
2011,08,16,15,12,21.00
2011,08,16,15,13,21.10
2011,08,16,15,14,21.10
2011,08,16,15,15,21.10
2011,08,16,15,16,21.20
2011,08,16,15,17,21.20
2011,08,16,15,18,21.30
2011,08,16,15,19,21.40
2011,08,16,15,20,21.40
2011,08,16,15,21,21.50
2011,08,16,15,22,21.60
2011,08,16,15,23,21.70
2011,08,16,15,24,21.70
2011,08,16,15,25,21.70
2011,08,16,15,26,21.60
2011,08,16,15,27,21.60
2011,08,16,15,28,21.60
2011,08,16,15,29,21.60
2011,08,16,15,30,21.60
2011,08,16,15,31,21.50
2011,08,16,15,32,21.50
2011,08,16,15,33,21.40
2011,08,16,15,34,21.40
2011,08,16,15,35,21.40
2011,08,16,15,36,21.40
2011,08,16,15,37,21.40
2011,08,16,15,38,21.40
2011,08,16,15,39,21.40
2011,08,16,15,40,21.50
2011,08,16,15,41,21.60
2011,08,16,15,42,21.60
2011,08,16,15,43,21.70
2011,08,16,15,44,21.80
2011,08,16,15,45,21.80
2011,08,16,15,46,21.90
2011,08,16,15,47,22.00
2011,08,16,15,48,22.10
2011,08,16,15,49,22.10
2011,08,16,15,50,22.20
2011,08,16,15,51,22.10
2011,08,16,15,52,22.10
2011,08,16,15,53,22.10
2011,08,16,15,54,22.00
2011,08,16,15,55,22.00
2011,08,16,15,56,21.90
2011,08,16,15,57,21.80
2011,08,16,15,58,21.80
2011,08,16,15,59,21.80
2011,08,16,16,00,21.80
2011,08,16,16,01,21.80
2011,08,16,16,02,21.90
2011,08,16,16,03,22.00
2011,08,16,16,04,22.00
2011,08,16,16,05,22.10
2011,08,16,16,06,22.20
2011,08,16,16,07,22.20
2011,08,16,16,08,22.30
2011,08,16,16,09,22.20
2011,08,16,16,10,22.10
2011,08,16,16,11,22.00
2011,08,16,16,12,21.90
2011,08,16,16,13,21.80
2011,08,16,16,14,21.80
2011,08,16,16,15,21.80
2011,08,16,16,16,21.80
2011,08,16,16,17,21.70
2011,08,16,16,18,21.70
2011,08,16,16,19,21.70
2011,08,16,16,20,21.70
2011,08,16,16,21,21.70
2011,08,16,16,22,21.70
2011,08,16,16,23,21.70
2011,08,16,16,24,21.70
2011,08,16,16,25,21.80
2011,08,16,16,26,21.80
2011,08,16,16,27,21.80
2011,08,16,16,28,21.80
2011,08,16,16,29,21.80
2011,08,16,16,30,21.80
2011,08,16,16,31,21.80
2011,08,16,16,32,21.80
2011,08,16,16,33,21.80
2011,08,16,16,34,21.80
2011,08,16,16,35,21.80
2011,08,16,16,36,21.90
2011,08,16,16,37,21.90
2011,08,16,16,38,22.00
2011,08,16,16,39,22.10
2011,08,16,16,40,22.10
2011,08,16,16,41,22.20
2011,08,16,16,42,22.20
2011,08,16,16,43,22.20
2011,08,16,16,44,22.10
2011,08,16,16,45,22.00
2011,08,16,16,46,21.90
2011,08,16,16,47,21.90
2011,08,16,16,48,21.90
2011,08,16,16,49,21.80
2011,08,16,16,50,21.80
2011,08,16,16,51,21.70
2011,08,16,16,52,21.70
2011,08,16,16,53,21.60
2011,08,16,16,54,21.60
2011,08,16,16,55,21.50
2011,08,16,16,56,21.40
2011,08,16,16,57,21.40
2011,08,16,16,58,21.40
2011,08,16,16,59,21.40
2011,08,16,17,00,21.40
2011,08,16,17,01,21.40
2011,08,16,17,02,21.30
2011,08,16,17,03,21.30
2011,08,16,17,04,21.20
2011,08,16,17,05,21.20
2011,08,16,17,06,21.20
2011,08,16,17,07,21.30
2011,08,16,17,08,21.30
2011,08,16,17,09,21.30
2011,08,16,17,10,21.30
2011,08,16,17,11,21.30
2011,08,16,17,12,21.30
2011,08,16,17,13,21.30
2011,08,16,17,14,21.30
2011,08,16,17,15,21.30
2011,08,16,17,16,21.30
2011,08,16,17,17,21.30
2011,08,16,17,18,21.30
2011,08,16,17,19,21.30
2011,08,16,17,20,21.30
2011,08,16,17,21,21.30
2011,08,16,17,22,21.40
2011,08,16,17,23,21.40
2011,08,16,17,24,21.40
2011,08,16,17,25,21.30
2011,08,16,17,26,21.30
2011,08,16,17,27,21.30
2011,08,16,17,28,21.20
2011,08,16,17,29,21.20
2011,08,16,17,30,21.20
2011,08,16,17,31,21.20
2011,08,16,17,32,21.10
2011,08,16,17,33,21.10
2011,08,16,17,34,21.00
2011,08,16,17,35,21.00